Change the Weather History Date:

Monday, August 25, 2014

  Actual Average Record
Temperature  
Mean Temperature 85 °F 74 °F  
Max Temperature 93 °F 84 °F 101 °F (1936)
Min Temperature 77 °F 64 °F 44 °F (1958)
Degree Days  
Heating Degree Days 0 0  
Month to date heating degree days 0 0  
Since 1 June heating degree days 9 14  
Since 1 July heating degree days 7 1  
Cooling Degree Days 20 9  
Month to date cooling degree days 209 262  
Year to date cooling degree days 784 991  
Since 1 June cooling degree days 646 888  
Growing Degree Days 34 (Base 50)    
Moisture  
Dew Point 76 °F    
Average Humidity 79    
Maximum Humidity 97    
Minimum Humidity 60    
Precipitation  
Precipitation 0.00 in 0.14 in 1.86 in (1951)
Month to date precipitation 4.33 3.41  
Year to date precipitation 27.19 26.39  
Sea Level Pressure  
Sea Level Pressure 29.95 in    
Wind  
Wind Speed 6 mph (South)    
Max Wind Speed 14 mph    
Max Gust Speed 18 mph    
Visibility 9 miles    
Events      
T = Trace of Precipitation, MM = Missing Value Source: NWS Daily Summary

Daily Weather History Graph

Daily Weather History Graph

Search for Another Location

Airport or City:

Trip Planner

Search our weather history database for the weather conditions in past years. The results will help you decide how hot, cold, wet, or windy it might be!

Date:

Astronomy

Aug. 25, 2014 Rise Set
Actual Time 6:24 AM CDT 7:47 PM CDT
Civil Twilight 5:55 AM CDT 8:16 PM CDT
Nautical Twilight 5:21 AM CDT 8:50 PM CDT
Astronomical Twilight 4:45 AM CDT 9:26 PM CDT
Moon 6:30 AM CDT (8/25) 7:37 PM CDT (8/25)
Length of Visible Light 14h 20m
Length of Day
13h 23m
New Moon, 0% of the Moon is Illuminated
Aug 25
New Moon
Sep 2
First Quarter
Sep 8
Full
Sep 15
Last Quarter
Sep 24
New

Hourly Weather History & Observations

Time (CDT) Temp. Heat Index Dew Point Humidity Pressure Visibility Wind Dir Wind Speed Gust Speed Precip Events Conditions
12:53 AM 78.1 °F - 75.0 °F 90% 29.93 in 10.0 mi South 6.9 mph - N/A   Clear
1:53 AM 81.0 °F 87.9 °F 77.0 °F 88% 29.92 in 10.0 mi South 11.5 mph - N/A   Clear
2:53 AM 79.0 °F - 77.0 °F 94% 29.92 in 10.0 mi South 9.2 mph - N/A   Clear
3:53 AM 80.1 °F 85.8 °F 77.0 °F 90% 29.91 in 10.0 mi South 9.2 mph - N/A   Clear
4:53 AM 78.1 °F - 77.0 °F 96% 29.91 in 9.0 mi South 6.9 mph - N/A   Clear
5:53 AM 78.1 °F - 75.9 °F 93% 29.92 in 8.0 mi South 9.2 mph - N/A   Clear
6:53 AM 78.1 °F - 75.9 °F 93% 29.93 in 7.0 mi South 6.9 mph - N/A   Clear
7:53 AM 79.0 °F - 75.9 °F 90% 29.95 in 8.0 mi SW 6.9 mph - N/A   Clear
8:53 AM 80.6 °F 86.2 °F 75.2 °F 84% 29.97 in 10.0 mi South 5.8 mph - N/A   Clear
9:53 AM 84.0 °F 92.6 °F 75.9 °F 76% 29.97 in 10.0 mi SSW 5.8 mph - N/A   Clear
10:53 AM 87.1 °F 97.3 °F 75.9 °F 69% 29.98 in 10.0 mi SSW 4.6 mph - N/A   Clear
11:53 AM 89.1 °F 100.2 °F 75.9 °F 65% 29.98 in 10.0 mi South 4.6 mph - N/A   Clear
12:53 PM 91.0 °F 102.9 °F 75.9 °F 61% 29.97 in 10.0 mi South 4.6 mph - N/A   Clear
1:53 PM 91.0 °F 102.9 °F 75.9 °F 61% 29.96 in 10.0 mi South 5.8 mph - N/A   Clear
2:53 PM 91.9 °F 103.2 °F 75.0 °F 58% 29.94 in 10.0 mi South 6.9 mph - N/A   Clear
3:53 PM 91.9 °F 105.9 °F 77.0 °F 62% 29.93 in 10.0 mi SSW 11.5 mph - N/A   Clear
4:53 PM 91.0 °F 104.2 °F 77.0 °F 63% 29.94 in 10.0 mi SW 6.9 mph - N/A   Mostly Cloudy
5:53 PM 90.0 °F 102.5 °F 77.0 °F 65% 29.94 in 10.0 mi SSW 8.1 mph - N/A   Clear
6:53 PM 88.0 °F 100.2 °F 77.0 °F 70% 29.93 in 10.0 mi SSW 5.8 mph - N/A   Clear
7:53 PM 82.0 °F 91.6 °F 79.0 °F 90% 29.95 in 4.0 mi Calm Calm - N/A   Clear
8:53 PM 80.6 °F 87.1 °F 77.0 °F 89% 29.98 in 10.0 mi Calm Calm - N/A   Clear
9:53 PM 78.8 °F - 75.2 °F 89% 30.00 in 10.0 mi South 3.5 mph - N/A   Clear
10:53 PM 79.0 °F - 75.9 °F 90% 29.99 in 10.0 mi South 5.8 mph - N/A   Clear
11:53 PM 79.0 °F - 75.9 °F 90% 30.01 in 10.0 mi South 4.6 mph - N/A   Scattered Clouds